| time (UTC) | temp C | wind direction | speed KPH | gust KPH | rain 1hr cm | rain 24hr cm | rain mn cm | humidity % | barometer mb |
| 20260902102518 | 10 | 141 | 9.7 | 11.3 | 0.00 | 0.00 | 0.00 | 70 | 1027.8 |
| 20260902101518 | 10 | 141 | 9.7 | 12.9 | 0.00 | 0.00 | 0.00 | 69 | 1027.8 |
| 20260902100547 | 10 | 139 | 6.4 | 8.0 | 0.00 | 0.00 | 0.00 | 72 | 1027.9 |
| 20260902095538 | 10 | 140 | 9.7 | 12.9 | 0.00 | 0.00 | 0.00 | 74 | 1027.9 |
| 20260902094538 | 11 | 135 | 8.0 | 9.7 | 0.00 | 0.00 | 0.00 | 73 | 1027.9 |
| 20260902093548 | 11 | 120 | 4.8 | 8.0 | 0.00 | 0.00 | 0.00 | 71 | 1027.9 |
| 20260902092527 | 11 | 91 | 4.8 | 6.4 | 0.00 | 0.00 | 0.00 | 72 | 1027.9 |
| 20260902091519 | 11 | 107 | 4.8 | 9.7 | 0.00 | 0.00 | 0.00 | 72 | 1027.9 |
| 20260902090519 | 12 | 71 | 6.4 | 9.7 | 0.00 | 0.00 | 0.00 | 71 | 1027.9 |
| 20260902085519 | 12 | 257 | 4.8 | 8.0 | 0.00 | 0.00 | 0.00 | 72 | 1027.8 |
| 20260902084519 | 12 | 209 | 9.7 | 14.5 | 0.00 | 0.00 | 0.00 | 72 | 1027.8 |
| 20260902083519 | 12 | 186 | 12.9 | 16.1 | 0.00 | 0.00 | 0.00 | 71 | 1027.8 |
| 20260902082519 | 12 | 156 | 9.7 | 14.5 | 0.00 | 0.00 | 0.00 | 71 | 1027.8 |
| 20260902081519 | 12 | 158 | 11.3 | 16.1 | 0.00 | 0.00 | 0.00 | 71 | 1028.0 |
| 20260902080529 | 11 | 174 | 3.2 | 6.4 | 0.00 | 0.00 | 0.00 | 74 | 1028.1 |
| 20260902075520 | 11 | 162 | 9.7 | 12.9 | 0.00 | 0.00 | 0.00 | 73 | 1027.9 |
| 20260902074520 | 12 | 158 | 6.4 | 8.0 | 0.00 | 0.00 | 0.00 | 72 | 1028.0 |
| 20260902073600 | 12 | 153 | 9.7 | 11.3 | 0.00 | 0.00 | 0.00 | 70 | 1028.0 |
| 20260902072540 | 12 | 165 | 9.7 | 12.9 | 0.00 | 0.00 | 0.00 | 69 | 1027.9 |
| 20260902071521 | 13 | 162 | 8.0 | 12.9 | 0.00 | 0.00 | 0.00 | 67 | 1028.0 |
| 20260902070541 | 13 | 178 | 11.3 | 16.1 | 0.00 | 0.00 | 0.00 | 65 | 1027.9 |
| 20260902065538 | 13 | 175 | 11.3 | 16.1 | 0.00 | 0.00 | 0.00 | 65 | 1028.0 |
| 20260902064521 | 13 | 167 | 11.3 | 16.1 | 0.00 | 0.00 | 0.00 | 67 | 1027.9 |
| 20260902063521 | 14 | 183 | 8.0 | 12.9 | 0.00 | 0.00 | 0.00 | 63 | 1027.9 |
| 20260902062522 | 13 | 226 | 8.0 | 11.3 | 0.00 | 0.00 | 0.00 | 62 | 1027.9 |
| 20260902061542 | 13 | 227 | 8.0 | 11.3 | 0.00 | 0.00 | 0.00 | 64 | 1027.9 |
| 20260902060522 | 12 | 190 | 9.7 | 12.9 | 0.00 | 0.00 | 0.00 | 69 | 1027.8 |
| 20260902055516 | 12 | 222 | 8.0 | 11.3 | 0.00 | 0.00 | 0.00 | 65 | 1027.9 |
| 20260902054516 | 11 | 176 | 8.0 | 11.3 | 0.00 | 0.00 | 0.00 | 73 | 1027.9 |
| 20260902053531 | 11 | 151 | 6.4 | 8.0 | 0.00 | 0.00 | 0.00 | 74 | 1027.9 |
| 20260902052523 | 11 | 138 | 6.4 | 9.7 | 0.00 | 0.00 | 0.00 | 73 | 1027.9 |
| 20260902051537 | 11 | 143 | 6.4 | 9.7 | 0.00 | 0.00 | 0.00 | 73 | 1028.0 |
| 20260902050517 | 12 | 106 | 4.8 | 6.4 | 0.00 | 0.00 | 0.00 | 68 | 1028.0 |
| 20260902045552 | 12 | 79 | 6.4 | 8.0 | 0.00 | 0.00 | 0.00 | 69 | 1028.1 |
| 20260902044532 | 13 | 146 | 4.8 | 6.4 | 0.00 | 0.00 | 0.00 | 68 | 1028.1 |
| 20260902043518 | 13 | 141 | 9.7 | 12.9 | 0.00 | 0.00 | 0.00 | 67 | 1028.1 |
| 20260902042516 | 14 | 129 | 4.8 | 6.4 | 0.00 | 0.00 | 0.00 | 64 | 1028.2 |
| 20260902041518 | 15 | 77 | 6.4 | 11.3 | 0.00 | 0.00 | 0.00 | 60 | 1028.2 |
| 20260902040518 | 15 | 87 | 6.4 | 11.3 | 0.00 | 0.00 | 0.00 | 61 | 1028.2 |
| 20260902035518 | 15 | 63 | 8.0 | 12.9 | 0.00 | 0.00 | 0.00 | 60 | 1028.1 |
| 20260902034519 | 15 | 61 | 8.0 | 12.9 | 0.00 | 0.00 | 0.00 | 56 | 1028.0 |
| 20260902033517 | 15 | 89 | 4.8 | 11.3 | 0.00 | 0.00 | 0.00 | 55 | 1027.9 |
| 20260902032537 | 15 | 66 | 8.0 | 11.3 | 0.00 | 0.00 | 0.00 | 56 | 1027.7 |
| 20260902031517 | 14 | 81 | 8.0 | 9.7 | 0.00 | 0.00 | 0.00 | 59 | 1027.9 |
| 20260902030518 | 14 | 92 | 3.2 | 6.4 | 0.00 | 0.00 | 0.00 | 61 | 1027.7 |
| 20260902025517 | 15 | 76 | 6.4 | 8.0 | 0.00 | 0.00 | 0.00 | 58 | 1027.5 |
| 20260902024518 | 16 | 83 | 4.8 | 6.4 | 0.00 | 0.00 | 0.00 | 55 | 1027.4 |
| 20260902023518 | 16 | 78 | 8.0 | 9.7 | 0.00 | 0.00 | 0.00 | 55 | 1027.3 |
| 20260902022518 | 16 | 46 | 4.8 | 6.4 | 0.00 | 0.00 | 0.00 | 53 | 1027.3 |
| 20260902021518 | 17 | 12 | 3.2 | 4.8 | 0.00 | 0.00 | 0.00 | 51 | 1027.2 |
| 20260902020518 | 17 | 344 | 3.2 | 4.8 | 0.00 | 0.00 | 0.00 | 50 | 1027.1 |
| 20260902015519 | 18 | 18 | 4.8 | 9.7 | 0.00 | 0.00 | 0.00 | 50 | 1027.0 |
| 20260902014518 | 18 | 30 | 11.3 | 19.3 | 0.00 | 0.00 | 0.00 | 48 | 1026.8 |
| 20260902013519 | 18 | 39 | 9.7 | 14.5 | 0.00 | 0.00 | 0.00 | 44 | 1026.7 |
| 20260902012520 | 18 | 6 | 3.2 | 6.4 | 0.00 | 0.00 | 0.00 | 47 | 1026.5 |
| 20260902011519 | 18 | 271 | 4.8 | 8.0 | 0.00 | 0.05 | 0.00 | 47 | 1026.4 |
| 20260902010519 | 19 | 243 | 6.4 | 11.3 | 0.00 | 0.05 | 0.00 | 45 | 1026.2 |
| 20260902005520 | 20 | 247 | 4.8 | 9.7 | 0.00 | 0.05 | 0.00 | 42 | 1026.3 |
| 20260902004520 | 20 | 252 | 8.0 | 11.3 | 0.00 | 0.05 | 0.00 | 40 | 1026.2 |
| 20260902003516 | 21 | 262 | 9.7 | 12.9 | 0.00 | 0.05 | 0.00 | 39 | 1026.2 |
| 20260902002539 | 22 | 264 | 11.3 | 16.1 | 0.00 | 0.05 | 0.00 | 38 | 1026.1 |
| 20260902001520 | 22 | 289 | 9.7 | 12.9 | 0.00 | 0.05 | 0.00 | 35 | 1026.1 |
| 20260902000541 | 21 | 284 | 9.7 | 14.5 | 0.00 | 0.05 | 0.00 | 38 | 1026.1 |
| 20260901235521 | 22 | 298 | 8.0 | 12.9 | 0.00 | 0.05 | 0.00 | 34 | 1026.0 |
| 20260901234517 | 23 | 305 | 9.7 | 14.5 | 0.00 | 0.05 | 0.00 | 31 | 1025.9 |
| 20260901233537 | 23 | 337 | 9.7 | 16.1 | 0.00 | 0.05 | 0.00 | 30 | 1025.8 |
| 20260901232517 | 23 | 61 | 8.0 | 14.5 | 0.00 | 0.05 | 0.00 | 33 | 1025.8 |
| 20260901231528 | 23 | 194 | 9.7 | 14.5 | 0.00 | 0.05 | 0.00 | 32 | 1026.0 |
| 20260901230518 | 23 | 246 | 8.0 | 12.9 | 0.00 | 0.05 | 0.00 | 30 | 1026.0 |
| 20260901225517 | 23 | 229 | 8.0 | 14.5 | 0.00 | 0.05 | 0.00 | 31 | 1026.0 |
| 20260901224518 | 23 | 214 | 9.7 | 17.7 | 0.00 | 0.05 | 0.00 | 31 | 1026.1 |
| 20260901223558 | 23 | 201 | 11.3 | 17.7 | 0.00 | 0.05 | 0.00 | 31 | 1026.2 |
| 20260901222518 | 23 | 227 | 9.7 | 17.7 | 0.00 | 0.05 | 0.00 | 30 | 1026.3 |
| 20260901221619 | 22 | 227 | 11.3 | 17.7 | 0.00 | 0.05 | 0.00 | 32 | 1026.5 |
| 20260901220518 | 22 | 240 | 4.8 | 11.3 | 0.00 | 0.05 | 0.00 | 29 | 1026.7 |
| 20260901215519 | 22 | 246 | 9.7 | 14.5 | 0.00 | 0.05 | 0.00 | 29 | 1026.8 |
| 20260901214545 | 22 | 295 | 8.0 | 11.3 | 0.00 | 0.05 | 0.00 | 28 | 1026.9 |
| 20260901213519 | 23 | 314 | 9.7 | 19.3 | 0.00 | 0.05 | 0.00 | 28 | 1027.0 |
| 20260901212536 | 22 | 292 | 9.7 | 16.1 | 0.00 | 0.05 | 0.00 | 28 | 1027.0 |
| 20260901211519 | 23 | 269 | 9.7 | 17.7 | 0.00 | 0.05 | 0.00 | 28 | 1026.9 |
| 20260901210520 | 23 | 314 | 8.0 | 16.1 | 0.00 | 0.05 | 0.00 | 27 | 1027.1 |
| 20260901205520 | 22 | 279 | 4.8 | 14.5 | 0.00 | 0.05 | 0.00 | 27 | 1027.2 |
| 20260901204519 | 22 | 329 | 3.2 | 8.0 | 0.00 | 0.05 | 0.00 | 28 | 1027.4 |
| 20260901203520 | 22 | 214 | 6.4 | 12.9 | 0.00 | 0.05 | 0.00 | 29 | 1027.5 |
| 20260901202518 | 22 | 268 | 11.3 | 17.7 | 0.00 | 0.05 | 0.00 | 29 | 1027.6 |
| 20260901201518 | 22 | 337 | 8.0 | 17.7 | 0.00 | 0.05 | 0.00 | 30 | 1027.7 |
| 20260901200521 | 22 | 30 | 6.4 | 14.5 | 0.00 | 0.05 | 0.00 | 30 | 1027.8 |
| 20260901195521 | 22 | 35 | 6.4 | 11.3 | 0.00 | 0.05 | 0.00 | 30 | 1028.0 |
| 20260901194518 | 22 | 25 | 8.0 | 16.1 | 0.00 | 0.05 | 0.00 | 32 | 1028.0 |
| 20260901193521 | 22 | 202 | 3.2 | 8.0 | 0.00 | 0.05 | 0.00 | 33 | 1028.0 |
| 20260901192519 | 22 | 218 | 11.3 | 20.9 | 0.00 | 0.05 | 0.00 | 33 | 1028.1 |
| 20260901191521 | 21 | 121 | 6.4 | 11.3 | 0.00 | 0.05 | 0.00 | 36 | 1028.4 |
| 20260901190518 | 21 | 186 | 11.3 | 20.9 | 0.00 | 0.05 | 0.00 | 37 | 1028.4 |
| 20260901185542 | 21 | 153 | 8.0 | 12.9 | 0.00 | 0.05 | 0.00 | 38 | 1028.6 |
| 20260901184522 | 20 | 197 | 4.8 | 9.7 | 0.00 | 0.05 | 0.00 | 39 | 1028.7 |
| 20260901183522 | 20 | 171 | 3.2 | 9.7 | 0.00 | 0.05 | 0.00 | 39 | 1028.8 |
| 20260901182516 | 20 | 63 | 4.8 | 8.0 | 0.00 | 0.05 | 0.00 | 42 | 1028.9 |
| 20260901181517 | 20 | 230 | 6.4 | 14.5 | 0.00 | 0.05 | 0.00 | 41 | 1028.9 |
| 20260901180543 | 20 | 179 | 3.2 | 11.3 | 0.00 | 0.05 | 0.00 | 41 | 1029.1 |
| 20260901175523 | 18 | 218 | 6.4 | 14.5 | 0.00 | 0.05 | 0.00 | 44 | 1029.0 |
| 20260901174517 | 18 | 220 | 9.7 | 16.1 | 0.00 | 0.05 | 0.00 | 45 | 1029.1 |
| 20260901173517 | 19 | 235 | 9.7 | 16.1 | 0.00 | 0.05 | 0.00 | 46 | 1029.1 |
| 20260901172518 | 20 | 237 | 11.3 | 17.7 | 0.00 | 0.05 | 0.00 | 44 | 1029.2 |
| 20260901171518 | 20 | 230 | 11.3 | 19.3 | 0.00 | 0.05 | 0.00 | 45 | 1029.3 |
| 20260901170538 | 20 | 231 | 12.9 | 19.3 | 0.00 | 0.05 | 0.00 | 44 | 1029.3 |
| 20260901165518 | 20 | 235 | 11.3 | 20.9 | 0.00 | 0.05 | 0.00 | 46 | 1029.3 |
| 20260901164518 | 20 | 230 | 11.3 | 19.3 | 0.00 | 0.05 | 0.00 | 47 | 1029.4 |
| 20260901163518 | 19 | 212 | 14.5 | 22.5 | 0.00 | 0.05 | 0.00 | 49 | 1029.4 |
| 20260901162519 | 18 | 223 | 12.9 | 20.9 | 0.00 | 0.05 | 0.00 | 51 | 1029.4 |
| 20260901161519 | 18 | 229 | 11.3 | 19.3 | 0.00 | 0.05 | 0.00 | 52 | 1029.5 |
| 20260901160539 | 18 | 230 | 14.5 | 22.5 | 0.00 | 0.05 | 0.00 | 53 | 1029.4 |
| 20260901155539 | 17 | 234 | 11.3 | 17.7 | 0.00 | 0.05 | 0.00 | 55 | 1029.4 |
| 20260901154536 | 17 | 223 | 12.9 | 17.7 | 0.00 | 0.05 | 0.00 | 56 | 1029.3 |
| 20260901153530 | 16 | 199 | 12.9 | 16.1 | 0.00 | 0.05 | 0.00 | 60 | 1029.4 |
| 20260901152530 | 15 | 201 | 12.9 | 14.5 | 0.00 | 0.05 | 0.00 | 66 | 1029.5 |
| 20260901151530 | -17 | 200 | 12.9 | 12.9 | 0.00 | 0.05 | 0.00 | 1029.5 |